Saginaw, MI

3:42 PM EDT on September 24, 2017 (GMT -0400)
MBS International

Weather History for KMBS - June, 2012

Change the Weather History Date:

Saturday, June 16, 2012

  Actual Average Record
Temperature  
Mean Temperature 74 °F 68 °F  
Max Temperature 86 °F 78 °F 90 °F (2007)
Min Temperature 63 °F 57 °F 50 °F (2003)
Degree Days  
Heating Degree Days 0    
Month to date heating degree days  
Since 1 June heating degree days  
Since 1 July heating degree days  
Cooling Degree Days 10    
Month to date cooling degree days  
Year to date cooling degree days  
Since 1 June cooling degree days  
Growing Degree Days 24 (Base 50)    
Moisture  
Dew Point 61 °F    
Average Humidity 63    
Maximum Humidity 84    
Minimum Humidity 47    
Precipitation  
Precipitation 0.03 in 0.09 in 0.86 in (2016)
Month to date precipitation 1.59  
Year to date precipitation 13.24  
Snow  
Snow 0.00 in - - ()
Month to date snowfall  
Since 1 June snowfall  
Since 1 July snowfall  
Snow Depth -    
Sea Level Pressure  
Sea Level Pressure 30.06 in    
Wind  
Wind Speed 6 mph (SSE)    
Max Wind Speed 14 mph    
Max Gust Speed 22 mph    
Visibility 10 miles    
Events Rain    
T = Trace of Precipitation, MM = Missing Value Source: NWS Daily Summary

Daily Weather History Graph

Daily Weather History Graph

Search for Another Location

Airport or City:

Trip Planner

Search our weather history database for the weather conditions in past years. The results will help you decide how hot, cold, wet, or windy it might be!

Date:

Astronomy

Jun. 16, 2012 Rise Set
Actual Time 5:54 AM EDT 9:19 PM EDT
Civil Twilight 5:18 AM EDT 9:55 PM EDT
Nautical Twilight 4:31 AM EDT 10:42 PM EDT
Astronomical Twilight 3:33 AM EDT 11:41 PM EDT
Moon 3:46 AM EDT (6/16) 6:52 PM EDT (6/16)
Length of Visible Light 16h 36m
Length of Day
15h 25m
Waning Crescent, 8% of the Moon is Illuminated
Jun 16
Waning Crescent
Jun 19
New
Jun 26
First Quarter
Jul 3
Full
Jul 10
Last Quarter

Hourly Weather History & Observations

Time (EDT) Temp. Heat Index Dew Point Humidity Pressure Visibility Wind Dir Wind Speed Gust Speed Precip Events Conditions
12:53 AM 73.0 °F - 54.0 °F 51% 30.11 in 10.0 mi SSE 8.1 mph - N/A   Clear
1:53 AM 69.1 °F - 55.0 °F 61% 30.12 in 10.0 mi SSE 5.8 mph - N/A   Clear
2:53 AM 66.0 °F - 55.0 °F 68% 30.12 in 10.0 mi Calm Calm - N/A   Clear
3:53 AM 63.0 °F - 55.9 °F 78% 30.12 in 10.0 mi Calm Calm - N/A   Clear
4:53 AM 63.0 °F - 55.9 °F 78% 30.13 in 10.0 mi Calm Calm - N/A   Clear
5:53 AM 63.0 °F - 57.0 °F 81% 30.14 in 10.0 mi East 3.5 mph - N/A   Clear
6:53 AM 63.0 °F - 57.0 °F 81% 30.15 in 7.0 mi Calm Calm - N/A   Clear
7:53 AM 69.1 °F - 59.0 °F 70% 30.16 in 10.0 mi South 5.8 mph - N/A   Clear
8:53 AM 72.0 °F - 61.0 °F 68% 30.15 in 10.0 mi South 8.1 mph - N/A   Clear
9:53 AM 73.9 °F - 62.1 °F 66% 30.14 in 10.0 mi SSW 5.8 mph - N/A   Clear
10:53 AM 77.0 °F - 64.0 °F 64% 30.12 in 10.0 mi South 6.9 mph - N/A   Clear
11:53 AM 81.0 °F 82.7 °F 64.9 °F 58% 30.12 in 10.0 mi South 5.8 mph - N/A   Clear
12:53 PM 84.0 °F 85.4 °F 64.0 °F 51% 30.10 in 10.0 mi SSE 9.2 mph - N/A   Clear
1:53 PM 84.9 °F 86.6 °F 64.9 °F 51% 30.09 in 10.0 mi SE 11.5 mph - N/A   Clear
2:53 PM 86.0 °F 87.3 °F 64.0 °F 48% 30.06 in 10.0 mi SSE 12.7 mph - N/A   Clear
3:53 PM 84.9 °F 85.9 °F 63.0 °F 48% 30.04 in 10.0 mi SSE 10.4 mph 19.6 mph N/A   Clear
4:53 PM 84.9 °F 86.6 °F 64.9 °F 51% 30.01 in 10.0 mi SSE 13.8 mph 19.6 mph N/A   Clear
5:53 PM 84.0 °F 84.9 °F 63.0 °F 49% 29.98 in 10.0 mi SSE 12.7 mph 20.7 mph N/A   Clear
6:53 PM 82.9 °F 83.3 °F 61.0 °F 47% 29.96 in 10.0 mi SSE 13.8 mph 21.9 mph N/A   Clear
7:53 PM 82.0 °F 82.7 °F 61.0 °F 49% 29.95 in 10.0 mi SE 10.4 mph - 0.00 in Rain Light Rain
8:53 PM 75.0 °F - 66.0 °F 73% 29.94 in 10.0 mi Calm Calm - 0.02 in   Mostly Cloudy
9:53 PM 73.0 °F - 68.0 °F 84% 29.94 in 9.0 mi ESE 8.1 mph - 0.01 in   Mostly Cloudy
10:53 PM 75.0 °F - 64.0 °F 69% 29.94 in 10.0 mi SSE 8.1 mph - N/A   Clear
11:53 PM 73.9 °F - 61.0 °F 64% 29.90 in 10.0 mi SSE 10.4 mph - N/A   Clear